FW8906 Weather Reports


time (UTC)temp
C
wind
direction
speed
KPH
gust
KPH
rain 1hr
cm
rain 24hr
cm
rain mn
cm
humidity
%
barometer
mb
20260503212050 23 284 3.2 8.0 0.00 0.00 0.00 51 1013.2
20260503211537 23 304 3.2 14.5 0.00 0.00 0.00 54 1013.2
20260503211105 23 300 4.8 14.5 0.00 0.00 0.00 52 1013.3
20260503210539 23 288 3.2 11.3 0.00 0.00 0.00 56 1013.4
20260503210058 23 271 3.2 14.5 0.00 0.00 0.00 59 1013.4
20260503205528 22 277 3.2 14.5 0.00 0.00 0.00 55 1013.5
20260503205037 22 269 6.4 17.7 0.00 0.00 0.00 57 1013.6
20260503204545 22 295 9.7 17.7 0.00 0.00 0.00 54 1013.7
20260503204025 22 274 8.0 14.5 0.00 0.00 0.00 60 1013.7
20260503203533 22 233 8.0 14.5 0.00 0.00 0.00 58 1013.8
20260503203041 22 278 9.7 14.5 0.00 0.00 0.00 54 1013.8
20260503202529 22 262 6.4 11.3 0.00 0.00 0.00 56 1013.8
20260503202029 22 291 4.8 12.9 0.00 0.00 0.00 59 1013.8
20260503201537 21 285 4.8 12.9 0.00 0.00 0.00 60 1013.9
20260503201045 21 317 3.2 12.9 0.00 0.00 0.00 60 1013.9
20260503200531 21 302 8.0 14.5 0.00 0.00 0.00 59 1013.9
20260503200108 21 315 8.0 14.5 0.00 0.00 0.00 62 1013.9
20260503195024 21 290 4.8 14.5 0.00 0.00 0.00 60 1014.0
20260503194532 21 271 11.3 14.5 0.00 0.00 0.00 59 1014.1
20260503194040 21 262 8.0 12.9 0.00 0.00 0.00 61 1014.2
20260503193549 21 269 8.0 11.3 0.00 0.00 0.00 59 1014.1
20260503193037 21 278 6.4 11.3 0.00 0.00 0.00 61 1014.2
20260503192537 21 243 6.4 14.5 0.00 0.00 0.00 62 1014.2
20260503192050 21 293 4.8 14.5 0.00 0.00 0.00 63 1014.3
20260503191529 20 245 6.4 11.3 0.00 0.00 0.00 60 1014.4
20260503191037 21 287 1.6 11.3 0.00 0.00 0.00 62 1014.4
20260503190546 21 354 4.8 11.3 0.00 0.00 0.00 61 1014.5
20260503190106 20 213 3.2 12.9 0.00 0.00 0.00 61 1014.5
20260503185527 20 34 3.2 12.9 0.00 0.00 0.00 59 1014.5
20260503185032 20 23 4.8 9.7 0.00 0.00 0.00 62 1014.6
20260503184530 20 276 3.2 9.7 0.00 0.00 0.00 63 1014.6
20260503184048 20 31 3.2 9.7 0.00 0.00 0.00 62 1014.7
20260503183527 20 300 3.2 9.7 0.00 0.00 0.00 64 1014.7
20260503182545 19 111 6.4 11.3 0.00 0.00 0.00 66 1014.8
20260503182024 20 44 4.8 9.7 0.00 0.00 0.00 63 1014.8
20260503181530 19 68 3.2 11.3 0.00 0.00 0.00 66 1014.9
20260503181038 19 65 4.8 11.3 0.00 0.00 0.00 62 1015.0
20260503180547 19 6 4.8 11.3 0.00 0.00 0.00 66 1015.1
20260503180106 18 65 4.8 11.3 0.00 0.00 0.00 70 1015.0
20260503175526 18 304 3.2 6.4 0.00 0.00 0.00 68 1015.1
20260503175035 18 88 3.2 9.7 0.00 0.00 0.00 67 1015.1
20260503174544 18 15 1.6 9.7 0.00 0.00 0.00 70 1015.1
20260503174048 18 307 3.2 9.7 0.00 0.00 0.00 67 1015.2
20260503173556 18 6 3.2 8.0 0.00 0.00 0.00 67 1015.3
20260503173105 18 319 4.8 9.7 0.00 0.00 0.00 67 1015.2
20260503172542 18 20 3.2 9.7 0.00 0.00 0.00 67 1015.2
20260503172031 18 271 3.2 11.3 0.00 0.00 0.00 71 1015.2
20260503171539 18 9 4.8 11.3 0.00 0.00 0.00 72 1015.3
20260503171050 18 291 3.2 9.7 0.00 0.00 0.00 72 1015.3
20260503170526 18 3 3.2 11.3 0.00 0.00 0.00 72 1015.3
20260503170115 18 290 1.6 11.3 0.00 0.00 0.00 72 1015.2
20260503150540 15 296 1.6 8.0 0.00 0.00 0.00 80 1015.7
20260503140109 13 226 1.6 4.8 0.00 0.00 0.00 87 1015.4
20260503131033 11 262 0.0 3.2 0.00 0.00 0.00 90 1015.1
20260503130600 11 242 0.0 1.6 0.00 0.00 0.00 91 1015.2
20260503110537 12 289 0.0 3.2 0.00 0.00 0.00 82 1015.4
20260503081548 13 134 0.0 1.6 0.00 0.00 0.00 81 1015.6
20260503081036 13 134 0.0 3.2 0.00 0.00 0.00 80 1015.5
20260503080530 12 131 1.6 3.2 0.00 0.00 0.00 79 1015.6
20260503072524 13 193 0.0 1.6 0.00 0.00 0.00 75 1015.4
20260503072053 14 193 0.0 1.6 0.00 0.00 0.00 74 1015.4
20260503071540 14 206 0.0 1.6 0.00 0.00 0.00 72 1015.4
20260503071049 15 207 0.0 1.6 0.00 0.00 0.00 71 1015.4
20260503070528 15 270 0.0 1.6 0.00 0.00 0.00 68 1015.4
20260503060120 16 279 4.8 11.3 0.00 0.00 0.00 64 1015.2
20260503055025 16 271 3.2 6.4 0.00 0.00 0.00 65 1015.3
20260503054530 16 271 1.6 6.4 0.00 0.00 0.00 65 1015.3
20260503054038 16 281 3.2 6.4 0.00 0.00 0.00 65 1015.2
20260503053547 16 267 3.2 8.0 0.00 0.00 0.00 65 1015.3
20260503053025 16 266 3.2 8.0 0.00 0.00 0.00 64 1015.2
20260503052533 17 285 3.2 9.7 0.00 0.00 0.00 63 1015.4
20260503052042 17 262 3.2 9.7 0.00 0.00 0.00 63 1015.3
20260503051549 17 269 3.2 8.0 0.00 0.00 0.00 62 1015.2
20260503051029 17 172 3.2 8.0 0.00 0.00 0.00 62 1015.2
20260503050555 17 260 4.8 8.0 0.00 0.00 0.00 62 1015.2
20260503045522 17 285 3.2 9.7 0.00 0.00 0.00 63 1015.1
20260503045028 17 290 4.8 11.3 0.00 0.00 0.00 64 1015.2
20260503044548 17 261 3.2 11.3 0.00 0.00 0.00 64 1015.0
20260503044036 17 295 3.2 9.7 0.00 0.00 0.00 63 1015.0
20260503043526 17 255 4.8 9.7 0.00 0.00 0.00 64 1015.0
20260503043053 17 321 3.2 9.7 0.00 0.00 0.00 64 1014.9
20260503042531 17 301 3.2 16.1 0.00 0.00 0.00 64 1014.9
20260503042039 17 346 6.4 16.1 0.00 0.00 0.00 64 1014.8
20260503041548 17 264 3.2 8.0 0.00 0.00 0.00 64 1014.8
20260503041036 17 245 4.8 8.0 0.00 0.00 0.00 64 1014.7
20260503040544 17 248 4.8 9.7 0.00 0.00 0.00 65 1014.7
20260503040105 17 304 4.8 9.7 0.00 0.00 0.00 65 1014.8
20260503035526 17 274 4.8 9.7 0.00 0.00 0.00 65 1014.6
20260503035056 17 276 3.2 9.7 0.00 0.00 0.00 66 1014.6
20260503034523 17 292 3.2 8.0 0.00 0.00 0.00 65 1014.5
20260503034047 17 354 4.8 12.9 0.00 0.00 0.00 65 1014.5
20260503033527 17 281 3.2 9.7 0.00 0.00 0.00 65 1014.5
20260503033035 17 314 4.8 12.9 0.00 0.00 0.00 64 1014.4
20260503032544 17 262 4.8 12.9 0.00 0.00 0.00 63 1014.4
20260503032031 17 282 4.8 9.7 0.00 0.00 0.00 63 1014.3
20260503031538 17 238 4.8 9.7 0.00 0.00 0.00 62 1014.2
20260503031038 18 293 1.6 9.7 0.00 0.00 0.00 62 1014.3
20260503030547 18 285 3.2 9.7 0.00 0.00 0.00 61 1014.2
20260503030055 18 276 3.2 8.0 0.00 0.00 0.00 61 1014.2
20260503025527 18 278 3.2 11.3 0.00 0.00 0.00 60 1014.3
20260503025025 19 288 4.8 11.3 0.00 0.00 0.00 59 1014.2
20260503024604 19 317 3.2 9.7 0.00 0.00 0.00 59 1014.2
20260503024039 19 278 1.6 11.3 0.00 0.00 0.00 59 1014.2
20260503023525 19 283 4.8 11.3 0.00 0.00 0.00 59 1014.2
20260503023033 20 289 3.2 9.7 0.00 0.00 0.00 60 1014.2
20260503022532 20 293 4.8 8.0 0.00 0.00 0.00 58 1014.1
20260503022041 20 287 1.6 11.3 0.00 0.00 0.00 60 1014.2
20260503021529 20 278 4.8 8.0 0.00 0.00 0.00 59 1014.2
20260503021057 20 275 3.2 8.0 0.00 0.00 0.00 58 1014.2
20260503020536 20 291 4.8 11.3 0.00 0.00 0.00 55 1014.1
20260503020053 21 321 3.2 11.3 0.00 0.00 0.00 55 1014.2
20260503015534 21 254 1.6 8.0 0.00 0.00 0.00 57 1014.4
20260503015042 20 266 1.6 11.3 0.00 0.00 0.00 57 1014.2
20260503014541 20 288 6.4 11.3 0.00 0.00 0.00 58 1014.3
20260503014030 21 84 1.6 11.3 0.00 0.00 0.00 58 1014.4
20260503013539 20 290 1.6 11.3 0.00 0.00 0.00 61 1014.4
20260503013039 20 302 4.8 9.7 0.00 0.00 0.00 60 1014.4
20260503012527 21 261 3.2 8.0 0.00 0.00 0.00 61 1014.4
20260503012035 20 252 3.2 11.3 0.00 0.00 0.00 61 1014.6
20260503011530 20 240 4.8 11.3 0.00 0.00 0.00 61 1014.6
20260503011108 20 247 4.8 11.3 0.00 0.00 0.00 61 1014.7
20260503010526 20 240 4.8 9.7 0.00 0.00 0.00 61 1014.6
20260503010044 20 281 4.8 9.7 0.00 0.00 0.00 62 1014.6
20260503005534 20 257 3.2 11.3 0.00 0.00 0.00 62 1014.7
20260503005032 20 297 4.8 11.3 0.00 0.00 0.00 61 1014.7
20260503004540 20 283 3.2 12.9 0.00 0.00 0.00 64 1014.6
20260503004049 20 296 8.0 12.9 0.00 0.00 0.00 62 1014.7
20260503003536 20 274 6.4 12.9 0.00 0.00 0.00 62 1014.7
20260503003042 20 245 4.8 17.7 0.00 0.00 0.00 62 1014.8
20260503002541 21 219 9.7 17.7 0.00 0.00 0.00 59 1014.7
20260503002028 21 288 8.0 11.3 0.00 0.00 0.00 61 1014.7
20260503001557 21 301 3.2 16.1 0.00 0.00 0.00 60 1014.7
20260503001040 21 270 6.4 17.7 0.00 0.00 0.00 60 1014.7
20260503000538 21 324 8.0 19.3 0.00 0.00 0.00 59 1014.7
20260503000131 21 304 4.8 19.3 0.00 0.00 0.00 60 1014.8
20260502235528 21 248 4.8 17.7 0.00 0.00 0.00 60 1015.0
20260502235036 21 274 6.4 17.7 0.00 0.00 0.00 60 1015.1
20260502234545 21 283 9.7 17.7 0.00 0.00 0.00 59 1015.0
20260502234052 21 288 4.8 17.7 0.00 0.00 0.00 62 1015.1
20260502233531 21 264 9.7 16.1 0.00 0.00 0.00 60 1015.1
20260502233039 21 311 9.7 16.1 0.00 0.00 0.00 59 1015.2
20260502232548 21 306 8.0 16.1 0.00 0.00 0.00 62 1015.1
20260502232047 21 262 8.0 14.5 0.00 0.00 0.00 61 1015.1
20260502231534 21 262 8.0 17.7 0.00 0.00 0.00 60 1015.2
20260502231041 20 312 9.7 17.7 0.00 0.00 0.00 62 1015.2
20260502230528 20 311 9.7 17.7 0.00 0.00 0.00 64 1015.4
20260502230044 20 246 11.3 19.3 0.00 0.00 0.00 61 1015.4
20260502225553 20 271 11.3 19.3 0.00 0.00 0.00 62 1015.4
20260502225101 20 300 8.0 16.1 0.00 0.00 0.00 63 1015.4
20260502224539 20 281 11.3 17.7 0.00 0.00 0.00 62 1015.4
20260502224043 20 295 8.0 17.7 0.00 0.00 0.00 64 1015.5
20260502223532 20 265 9.7 16.1 0.00 0.00 0.00 63 1015.6
20260502223031 20 277 8.0 12.9 0.00 0.00 0.00 62 1015.8
20260502222540 20 284 8.0 14.5 0.00 0.00 0.00 65 1015.8
20260502222048 20 292 8.0 17.7 0.00 0.00 0.00 66 1015.9
20260502221534 20 234 9.7 20.9 0.00 0.00 0.00 64 1016.0
20260502221103 20 281 11.3 20.9 0.00 0.00 0.00 66 1016.2
20260502220529 20 275 6.4 16.1 0.00 0.00 0.00 70 1016.3
20260502220045 20 270 8.0 19.3 0.00 0.00 0.00 67 1016.3
20260502215526 20 290 8.0 17.7 0.00 0.00 0.00 70 1016.3
20260502215106 20 309 4.8 16.1 0.00 0.00 0.00 69 1016.4
20260502214542 20 266 6.4 17.7 0.00 0.00 0.00 69 1016.3
20260502214051 19 281 9.7 17.7 0.00 0.00 0.00 70 1016.4
20260502213559 20 303 8.0 12.9 0.00 0.00 0.00 69 1016.5
20260502213042 19 297 8.0 19.3 0.00 0.00 0.00 71 1016.5
20260502212528 19 305 12.9 19.3 0.00 0.00 0.00 68 1016.6